Terminal Aerodrome Forecast
Issued by NWS St Louis, MO

Home | Current Version | Previous Version | Text Only | Print | Product List | Glossary On
Versions: 1 2 3 4 5 6 7 8 9 10 11 12 13 14 15 16 17 18 19 20 21 22
000
FTUS43 KLSX 231700
TAFSTL
TAF
KSTL 231730Z 2318/2424 15007KT P6SM SCT250
     FM240000 VRB04KT P6SM FEW250=

USA.gov is the U.S. government's official web portal to all federal, state and local government web resources and services.